Photometre #253[Standard_N] Modena AOT

File : 20220919_253.hum

19/09/2022,05:49:44,TEMP=13.1,BA=5.28,STAT.A
19/09/2022,05:49:56,TEMP=13.1,BA=5.28,STAT.s
19/09/2022,05:53:20,TEMP=13.3,BA=5.32,STAT.A
19/09/2022,05:53:33,TEMP=13.3,BA=5.32,STAT.s
19/09/2022,05:57:31,TEMP=13.6,BA=5.32,STAT.A
19/09/2022,05:57:44,TEMP=13.6,BA=5.32,STAT.s
19/09/2022,06:02:32,TEMP=13.9,BA=5.36,STAT.A
19/09/2022,06:02:53,TEMP=13.9,BA=5.36,STAT.s
19/09/2022,06:08:34,TEMP=14.3,BA=5.36,STAT.A
19/09/2022,06:08:55,TEMP=14.3,BA=5.36,STAT.s
19/09/2022,06:16:00,TEMP=14.7,BA=5.36,STAT.A
19/09/2022,06:16:11,TEMP=14.7,BA=5.36,STAT.s
19/09/2022,06:25:22,TEMP=15.2,BA=5.40,STAT.B
19/09/2022,06:25:33,TEMP=15.2,BA=5.40,STAT.s
19/09/2022,06:29:51,TEMP=15.6,BA=5.40,STAT.A
19/09/2022,06:30:03,TEMP=15.6,BA=5.40,STAT.s
19/09/2022,06:34:53,TEMP=16.0,BA=5.44,STAT.A
19/09/2022,06:35:05,TEMP=16.0,BA=5.44,STAT.s
19/09/2022,06:40:33,TEMP=16.5,BA=5.48,STAT.A
19/09/2022,06:40:44,TEMP=16.5,BA=5.48,STAT.s
19/09/2022,06:47:00,TEMP=17.0,BA=5.48,STAT.A
19/09/2022,06:54:23,TEMP=17.6,BA=5.48,STAT.C
19/09/2022,06:56:09,TEMP=17.7,BA=5.48,STAT.s
19/09/2022,07:03:00,TEMP=18.3,BA=5.52,STAT.A
19/09/2022,07:13:09,TEMP=19.4,BA=5.56,STAT.A
19/09/2022,07:25:20,TEMP=20.4,BA=5.56,STAT.A
19/09/2022,07:40:22,TEMP=21.6,BA=5.60,STAT.A
19/09/2022,07:59:23,TEMP=22.8,BA=5.60,STAT.B
19/09/2022,08:10:45,TEMP=23.7,BA=5.64,STAT.F
19/09/2022,08:25:43,TEMP=24.1,BA=5.64,STAT.D
19/09/2022,08:40:44,TEMP=24.2,BA=5.56,STAT.D
19/09/2022,08:55:43,TEMP=24.4,BA=5.56,STAT.D
19/09/2022,09:10:45,TEMP=24.8,BA=5.56,STAT.F
19/09/2022,09:25:44,TEMP=25.3,BA=5.56,STAT.D
19/09/2022,09:40:44,TEMP=25.7,BA=5.64,STAT.D
19/09/2022,09:55:45,TEMP=25.6,BA=5.60,STAT.D
19/09/2022,10:10:44,TEMP=26.1,BA=5.60,STAT.F
19/09/2022,10:25:47,TEMP=26.9,BA=5.60,STAT.D
19/09/2022,10:40:45,TEMP=26.7,BA=5.56,STAT.D
19/09/2022,10:55:45,TEMP=27.2,BA=5.56,STAT.D
19/09/2022,11:10:45,TEMP=27.7,BA=5.52,STAT.E
19/09/2022,11:25:45,TEMP=28.2,BA=5.52,STAT.D
19/09/2022,11:40:45,TEMP=28.6,BA=5.52,STAT.D
19/09/2022,11:55:45,TEMP=28.8,BA=5.48,STAT.D
19/09/2022,12:10:45,TEMP=28.8,BA=5.48,STAT.F
19/09/2022,12:25:45,TEMP=28.6,BA=5.48,STAT.D
19/09/2022,12:40:47,TEMP=28.5,BA=5.48,STAT.D
19/09/2022,12:55:45,TEMP=28.6,BA=5.48,STAT.D
19/09/2022,13:10:45,TEMP=29.1,BA=5.48,STAT.F
19/09/2022,13:25:45,TEMP=30.0,BA=5.48,STAT.D
19/09/2022,13:40:44,TEMP=30.2,BA=5.48,STAT.D
19/09/2022,13:55:44,TEMP=30.1,BA=5.48,STAT.D
19/09/2022,14:10:44,TEMP=30.8,BA=5.44,STAT.F
19/09/2022,14:22:10,TEMP=30.8,BA=5.44,STAT.B
19/09/2022,14:41:09,TEMP=29.6,BA=5.44,STAT.A
19/09/2022,14:56:09,TEMP=28.7,BA=5.48,STAT.A
19/09/2022,15:08:20,TEMP=28.4,BA=5.44,STAT.A
19/09/2022,15:18:29,TEMP=28.1,BA=5.44,STAT.A
19/09/2022,15:27:05,TEMP=27.5,BA=5.44,STAT.C
19/09/2022,15:34:29,TEMP=26.6,BA=5.40,STAT.A
19/09/2022,15:40:57,TEMP=26.2,BA=5.44,STAT.A
19/09/2022,15:46:37,TEMP=26.1,BA=5.44,STAT.A
19/09/2022,15:51:37,TEMP=26.1,BA=5.44,STAT.A
19/09/2022,15:56:07,TEMP=26.2,BA=5.44,STAT.B
19/09/2022,16:05:30,TEMP=26.1,BA=5.48,STAT.A
19/09/2022,16:12:55,TEMP=26.0,BA=5.44,STAT.A
19/09/2022,16:18:58,TEMP=25.9,BA=5.44,STAT.A
19/09/2022,16:23:57,TEMP=25.8,BA=5.44,STAT.A
19/09/2022,16:28:09,TEMP=25.6,BA=5.44,STAT.A
19/09/2022,16:31:45,TEMP=25.5,BA=5.40,STAT.A